Overview Statistics Trail Chart Weather Telemetry Raw packets
 

This is the latest recevied weather packets stored in our database for station/object SM4JDW-10. If no packets are shown the sender has not sent any weather packets the latest 10 day(s).

<< 9 10 11 12 13 14 15 >>
Time Temp. Humidity Pressure Rain* Wind** Luminosity Snow
1788137350 13.89° C 81% 1000.9 hPa - - - -
1788135550 14.44° C 81% 1000.9 hPa - - - -
1788133750 14.44° C 82% 1001.1 hPa - - - -
1788131950 14.44° C 81% 1000.8 hPa - - - -
1788130150 14.44° C 81% 1000.8 hPa - - - -
1788128350 14.44° C 81% 1000.8 hPa - - - -
1788126550 14.44° C 80% 1000.8 hPa - - - -
1788124750 14.44° C 81% 1000.9 hPa - - - -
1788122950 15° C 80% 1000.9 hPa - - - -
1788121150 15° C 80% 1001 hPa - - - -
1788119350 15.56° C 79% 1000.9 hPa - - - -
1788117550 15.56° C 79% 1000.9 hPa - - - -
1788115749 16.11° C 78% 1000.8 hPa - - - -
1788113949 16.67° C 79% 1000.8 hPa - - - -
1788112149 16.67° C 78% 1000.6 hPa - - - -
1788110349 17.22° C 77% 1000.7 hPa - - - -
1788108549 17.22° C 77% 1000.5 hPa - - - -
1788106749 16.67° C 78% 1000.4 hPa - - - -
1788104949 16.67° C 77% 1000.6 hPa - - - -
1788103149 16.67° C 76% 1000.7 hPa - - - -
1788101349 16.67° C 76% 1000.8 hPa - - - -
1788099549 16.67° C 74% 1001.1 hPa - - - -
1788097749 17.22° C 72% 1001 hPa - - - -
1788095949 17.78° C 75% 1000.8 hPa - - - -
1788094149 17.78° C 75% 1000.7 hPa - - - -

* Rain since midnight (hover to see other rain measurements)
** Current wind speed in m/s (hover to see current wind gust speed)